Zurück zum Katalog

FENGYUN 1C DEB

AktivSSO
NORAD 36681·DEBRIS·🇨🇳 China

Gestartet May 10, 1999 von Taiyuan Satellite Launch Center

Loading…

Nächste Überflüge (nächste 24 Stunden)

TLE

AktuellSource: Space-Track

Epoche: Sep 11, 2026, 04:51 UTC

1 36681U 99025DZB 26254.20247684  .00000626  00000-0  37042-3 0  9994
2 36681  98.7089 249.2177 0042716 296.9583  62.7229 14.10794987765995

Verfolge FENGYUN 1C DEB in Echtzeit mit AllMySat

Download on the App Store